Location: Castifao
(42.5040°N, 9.1124°E)
Time: 18:39:14
(UTC+00:00)

Cosmos 1300 - Pass Details

Date: 23 January 2020
Orbit: 511 x 515 km, 82.5° (Epoch: 25 February)

Event Time Altitude Azimuth Distance (km) Brightness Sun altitude
Rises 17:13:53 0° 345° (NNW) 2,637 6.3 -9.2°
Reaches altitude 10° 17:16:04 10° 340° (NNW) 1,745 5.4 -9.6°
Maximum altitude 17:19:44 46° 266° (W) 702 3.9 -10.2°
Drops below altitude 10° 17:23:22 10° 193° (SSW) 1,728 5.8 -10.9°
Sets 17:25:32 0° 187° (S) 2,608 6.6 -11.3°
